Location: Canyam�s
(41.5996°N, 2.4450°E)
Time: 10:45:54
(UTC+00:00)

RESURS DK-1 - Pass Details

Date: 06 June 2020
Orbit: 557 x 560 km, 69.9° (Epoch: 11 July)

Event Time Altitude Azimuth Distance (km) Brightness Sun altitude
Exits shadow 23:18:29 18° 272° (W) 1,413 4.5 -25.2°
Maximum altitude 23:20:09 23° 305° (NW) 1,227 4.5 -25.3°
Drops below altitude 10° 23:23:27 10° 358° (N) 1,850 6.0 -25.4°
Sets 23:26:03 0° 14° (NNE) 2,750 7.0 -25.4°
